Location: *
(48.8667°N, 2.3331°E)
Time: 11:06:11
(UTC+00:00)

STARLINK-1229 - Pass Details

Date: 09 April 2020
Orbit: 378 x 381 km, 53.0° (Epoch: 26 May)

Event Time Altitude Azimuth Distance (km) Brightness Sun altitude
Rises 19:50:53 0° 294° (WNW) 2,263 8.8 -12.6°
Reaches altitude 10° 19:52:59 10° 289° (WNW) 1,406 7.1 -12.9°
Maximum altitude 19:56:02 52° 212° (SSW) 482 3.3 -13.4°
Enters shadow 19:57:33 25° 146° (SE) 808 4.0 -13.6°
